NEW BEDFORD MA US MAEOT current weather conditions

sailwx.info

Wind from 016

Air temperature -0.1° C
Dewpoint -5.0° C

Last reported at 2020-Jan-24 10:50 UTC.
Time now 2020-Jan-24 11:34 UTC

Location: N 41°39' W 070°56'.
View on Google Maps.

See reports from other nearby stations

  
Tides and Currents Weather Stations Pressure Air Temp Water Temp Dewpoint Dewpoint Depression Visibility Wind Speed Wind Dir Waves Ship Positions
date/time (UTC)wind fromknots sea level pressurealtimeterstation pressurevisibilityair tempwater tempwave heightnotes
2020-Jan-24 10:50 016 -0.1
2020-Jan-24 10:45 016 0.1
2020-Jan-24 10:40 014 0.2
2020-Jan-24 10:35 014 0.3
2020-Jan-24 10:30 014 0.4
2020-Jan-24 10:25 014 0.4
2020-Jan-24 10:20
2020-Jan-24 10:10
2020-Jan-24 10:05 036 0 0.2
2020-Jan-24 10:00 036 0 -0.1
2020-Jan-24 09:55 036 0 -0.2
2020-Jan-24 09:50 036 0 -0.1
2020-Jan-24 09:45 036 0 -0.0
2020-Jan-24 09:40 032 0 -0.0
2020-Jan-24 09:35
2020-Jan-24 09:30 312 0.3
2020-Jan-24 09:25 312 0.3
2020-Jan-24 09:20
2020-Jan-24 09:15
2020-Jan-24 09:10 312 0.3
2020-Jan-24 09:05
2020-Jan-24 09:00 312 0.2
2020-Jan-24 08:55 312 0.1
2020-Jan-24 08:50 312 0.1
2020-Jan-24 08:45 312 0.1
2020-Jan-24 08:40 300 0 -0.1
2020-Jan-24 08:35 300 0 -0.1
2020-Jan-24 08:30 300 0 -0.2
2020-Jan-24 08:20 300 0 -0.6
2020-Jan-24 08:15
2020-Jan-24 08:10 300 0 -0.6
2020-Jan-24 08:05 294 0 -0.3
2020-Jan-24 08:00 294 0 -0.3
2020-Jan-24 07:55 294 0 0.4
2020-Jan-24 07:50 294 0 0.4
2020-Jan-24 07:45 294 0 0.6
2020-Jan-24 07:40 180 0.5
2020-Jan-24 07:35 180 0.4
2020-Jan-24 07:30 180 0.5
2020-Jan-24 07:25 180 0.7
2020-Jan-24 07:20 180 0.7
2020-Jan-24 07:15
2020-Jan-24 07:10 180 0.7
2020-Jan-24 07:05 344 0.7
2020-Jan-24 07:00 344 0.5
2020-Jan-24 06:55 344 0.4
2020-Jan-24 06:50 344 0.5
2020-Jan-24 06:45 344 0.5
2020-Jan-24 06:40
2020-Jan-24 06:35 104 0.5
2020-Jan-24 06:30 104 0.5
2020-Jan-24 06:25 104 0.4
2020-Jan-24 06:20
2020-Jan-24 06:10 286 2 0.6
2020-Jan-24 06:05 286 2 0.7
2020-Jan-24 06:00 286 2 0.9
2020-Jan-24 05:55 286 2 0.9
2020-Jan-24 05:50 286 2 0.9
2020-Jan-24 05:45 286 2 1.0
2020-Jan-24 05:40 274 2 1.2
2020-Jan-24 05:35 274 2 1.2
2020-Jan-24 05:30 274 2 1.2
2020-Jan-24 05:25 274 2 1.3
2020-Jan-24 05:20 274 2 1.4
2020-Jan-24 05:10 274 2 1.1
2020-Jan-24 05:05 308 1.0
2020-Jan-24 05:00 308 1.0
2020-Jan-24 04:55 308 1.0
2020-Jan-24 04:50 308 1.0
2020-Jan-24 04:45 308 1.2
2020-Jan-24 04:40 276 1.2
2020-Jan-24 04:35 276 1.4
2020-Jan-24 04:30
2020-Jan-24 04:25 276 1.5
2020-Jan-24 04:20 276 1.5
2020-Jan-24 04:15
2020-Jan-24 04:10 276 1.5
2020-Jan-24 04:05 224 1 1.5
2020-Jan-24 04:00 224 1 1.6
2020-Jan-24 03:55 224 1 1.5
2020-Jan-24 03:50 224 1 1.3
2020-Jan-24 03:45 224 1 1.3
2020-Jan-24 03:40 224 1 1.3
2020-Jan-24 03:35 224 1 1.3
2020-Jan-24 03:30 224 1 1.3
2020-Jan-24 03:25 224 1 1.3
2020-Jan-24 03:20 224 1 1.3
2020-Jan-24 03:15
2020-Jan-24 03:10 224 1 1.4
2020-Jan-24 03:05 240 3 1.4
2020-Jan-24 03:00 240 3 1.4
2020-Jan-24 02:55 240 3 1.4
2020-Jan-24 02:50 240 3 1.4
2020-Jan-24 02:45 240 3 1.4
2020-Jan-24 02:40 236 2 1.5
2020-Jan-24 02:35 236 2 1.5
2020-Jan-24 02:30
2020-Jan-24 02:25 236 2 1.4
2020-Jan-24 02:20 236 2 1.4
2020-Jan-24 02:15 236 2 1.4
2020-Jan-24 02:10 236 2 1.6
2020-Jan-24 02:05 236 2 1.6
2020-Jan-24 02:00 262 1 1.6
2020-Jan-24 01:55 262 1 1.6
2020-Jan-24 01:50 262 1 1.6
2020-Jan-24 01:45 262 1 1.6
2020-Jan-24 01:40 258 1 1.6
2020-Jan-24 01:35 258 1 1.6
2020-Jan-24 01:30 258 1 1.5
2020-Jan-24 01:25 258 1 1.7
2020-Jan-24 01:20 258 1 1.7
2020-Jan-24 01:15 258 1 1.6
2020-Jan-24 01:10 258 1 1.7
2020-Jan-24 01:05 240 1 1.7
2020-Jan-24 01:00 240 1 1.7
2020-Jan-24 00:55 240 1 1.8
2020-Jan-24 00:50 240 1 1.8
2020-Jan-24 00:45 240 1 1.7
2020-Jan-24 00:40 218 1 1.7
2020-Jan-24 00:35 218 1 1.7
2020-Jan-24 00:30 218 1 1.8
2020-Jan-24 00:25 218 1 1.7
2020-Jan-24 00:15
2020-Jan-24 00:10 214 4 1.8
2020-Jan-24 00:05 214 4 1.7
2020-Jan-24 00:00 214 4 1.8
2020-Jan-23 23:55 214 4 1.9
2020-Jan-23 23:50 214 4 1.8
2020-Jan-23 23:45 214 4 1.8
2020-Jan-23 23:40 212 2 1.8
2020-Jan-23 23:35 212 2 1.8
2020-Jan-23 23:30 212 2 1.7
2020-Jan-23 23:25 212 2 1.8
2020-Jan-23 23:20 212 2 1.8
2020-Jan-23 23:15
2020-Jan-23 23:10 212 2 1.9
2020-Jan-23 23:05 228 5 2.0
2020-Jan-23 23:00 228 5 2.1
2020-Jan-23 22:55 228 5 2.1
2020-Jan-23 22:50 228 5 2.2
2020-Jan-23 22:45 228 5 2.2
2020-Jan-23 22:40 230 5 2.2
2020-Jan-23 22:35 230 5 2.2
2020-Jan-23 22:30 230 5 2.4
2020-Jan-23 22:25 230 5 2.5
2020-Jan-23 22:20 230 5 2.6
2020-Jan-23 22:15 230 5 2.7
2020-Jan-23 22:10 230 5 2.8
2020-Jan-23 22:05 230 5 3.0
2020-Jan-23 22:00 230 5 3.0
2020-Jan-23 21:55 230 5 3.2
2020-Jan-23 21:50 230 5 3.3
2020-Jan-23 21:45 230 5 3.5
2020-Jan-23 21:40 220 5 3.6
2020-Jan-23 21:35 220 5 3.8
2020-Jan-23 21:30 220 5 4.0
2020-Jan-23 21:25 220 5 4.2
2020-Jan-23 21:20 220 5 4.3
2020-Jan-23 21:15 206 5 4.6
2020-Jan-23 21:10 206 5 4.7
2020-Jan-23 21:05 206 5 4.9
2020-Jan-23 21:00 206 5 5.1
2020-Jan-23 20:55 206 5 5.4
2020-Jan-23 20:50 206 5 5.6
2020-Jan-23 20:45 206 5 5.7
2020-Jan-23 20:40 214 6 5.9
2020-Jan-23 20:35 214 6 6.0
2020-Jan-23 20:30 214 6 6.2
2020-Jan-23 20:25 214 6 6.4
2020-Jan-23 20:20
2020-Jan-23 20:15 214 6 6.8
2020-Jan-23 20:10 214 6 6.9
2020-Jan-23 20:05 234 7 7.0
2020-Jan-23 20:00 234 7 7.1
2020-Jan-23 19:55 234 7 7.4
2020-Jan-23 19:50 234 7 7.9
2020-Jan-23 19:45 234 7 8.0
2020-Jan-23 19:40 238 7 8.2
2020-Jan-23 19:35 238 7 8.4
2020-Jan-23 19:30 238 7 8.1
2020-Jan-23 19:25 238 7 8.2
2020-Jan-23 19:20 238 7 8.0
2020-Jan-23 19:15
2020-Jan-23 19:10 238 7 8.6
2020-Jan-23 19:05 236 8 8.4
2020-Jan-23 19:00 236 8 8.4
2020-Jan-23 18:55 236 8 8.3
2020-Jan-23 18:50 236 8 8.1
2020-Jan-23 18:45 236 8 7.9
2020-Jan-23 18:40 238 8 7.9
2020-Jan-23 18:35
2020-Jan-23 18:30 238 8 8.3
2020-Jan-23 18:25 238 8 8.5
2020-Jan-23 18:20 238 8 8.1
2020-Jan-23 18:10
2020-Jan-23 18:05 226 7 8.5
2020-Jan-23 18:00 226 7 8.4
2020-Jan-23 17:55 226 7 8.3
2020-Jan-23 17:50 226 7 8.3
2020-Jan-23 17:45 226 7 7.8
2020-Jan-23 17:40 230 7 7.6
2020-Jan-23 17:35 230 7 7.7
2020-Jan-23 17:30 230 7 7.8
2020-Jan-23 17:25 230 7 7.6
2020-Jan-23 17:20 230 7 7.2
2020-Jan-23 17:15
2020-Jan-23 17:10 230 7 7.2
2020-Jan-23 17:05 232 7 6.4
2020-Jan-23 17:00 232 7 6.6
2020-Jan-23 16:55 232 7 7.3
2020-Jan-23 16:50 232 7 7.5
2020-Jan-23 16:45
2020-Jan-23 16:40 234 7 7.4
2020-Jan-23 16:35 234 7 6.7
2020-Jan-23 16:25 234 7 6.6
2020-Jan-23 16:20 234 7 6.3
2020-Jan-23 16:10 234 7 7.1
2020-Jan-23 16:05 234 7 7.4
2020-Jan-23 16:00 228 5 6.7
2020-Jan-23 15:55 228 5 6.8
2020-Jan-23 15:50 228 5 6.4
2020-Jan-23 15:45 228 5 6.3
2020-Jan-23 15:40 220 4 6.6
2020-Jan-23 15:35 220 4 6.6
2020-Jan-23 15:30
2020-Jan-23 15:25 220 4 6.3
2020-Jan-23 15:20 220 4 6.1
2020-Jan-23 15:15
2020-Jan-23 15:10 242 4 6.1
2020-Jan-23 15:05 242 4 5.9
2020-Jan-23 15:00 242 4 5.5
2020-Jan-23 14:55 242 4 5.4
2020-Jan-23 14:50 242 4 5.6
2020-Jan-23 14:45 242 4 5.5
2020-Jan-23 14:40 236 2 5.1
2020-Jan-23 14:35 236 2 4.9
2020-Jan-23 14:30 236 2 4.4
2020-Jan-23 14:25
2020-Jan-23 14:20 236 2 4.2
2020-Jan-23 14:15
2020-Jan-23 14:10 236 2 4.1
2020-Jan-23 14:05 236 2 3.8
2020-Jan-23 14:00 236 2 3.5
2020-Jan-23 13:55 236 2 3.0
2020-Jan-23 13:50 236 2 2.7
2020-Jan-23 13:45 236 2 2.6
2020-Jan-23 13:40 226 1 2.3
2020-Jan-23 13:35 226 1 2.2
2020-Jan-23 13:30 226 1 2.0
2020-Jan-23 13:25 226 1 1.7
2020-Jan-23 13:20 226 1 1.4
2020-Jan-23 13:15
2020-Jan-23 13:10 226 1 0.9
2020-Jan-23 13:05 202 1 0.6
2020-Jan-23 13:00 202 1 0.4
2020-Jan-23 12:55 202 1 -0.0
2020-Jan-23 12:50 202 1 -0.5
2020-Jan-23 12:45 202 1 -0.8
2020-Jan-23 12:40 222 -1.0
2020-Jan-23 12:35 222 -1.2
2020-Jan-23 12:30 222 -1.5
2020-Jan-23 12:25 222 -1.6
2020-Jan-23 12:20 222 -1.7
2020-Jan-23 12:15
2020-Jan-23 12:10 216 1 -1.7
2020-Jan-23 12:05 216 1 -1.8
2020-Jan-23 12:00 216 1 -1.8
2020-Jan-23 11:55 216 1 -1.8
2020-Jan-23 11:50 216 1 -1.9
2020-Jan-23 11:45 216 1 -2.1
2020-Jan-23 11:40 220 1 -2.2
2020-Jan-23 11:35 220 1 -2.2
2020-Jan-23 11:30 220 1 -2.2
2020-Jan-23 11:25 220 1 -2.3
2020-Jan-23 11:20
2020-Jan-23 11:15 220 1 -2.5
2020-Jan-23 11:10 220 1 -2.6
2020-Jan-23 11:05 220 1 -2.6
2020-Jan-23 11:00 220 1 -2.7
2020-Jan-23 10:55 220 1 -2.8
2020-Jan-23 10:50 220 1 -2.8
2020-Jan-23 10:45 220 1 -2.9
2020-Jan-23 10:40 254 -2.8
2020-Jan-23 10:35 254 -2.8
2020-Jan-23 10:30 254 -2.8
2020-Jan-23 10:25 254 -2.8
2020-Jan-23 10:20
2020-Jan-23 10:15 156 1 -2.7
2020-Jan-23 10:10 156 1 -2.6
2020-Jan-23 10:05 156 1 -2.5
2020-Jan-23 10:00 156 1 -2.5
2020-Jan-23 09:55 156 1 -2.4
2020-Jan-23 09:50 156 1 -2.3
2020-Jan-23 09:45 202 0 -2.4
2020-Jan-23 09:40 312 0 -2.6
2020-Jan-23 09:35 312 0 -2.7
2020-Jan-23 09:30 312 0 -2.7
2020-Jan-23 09:25 312 0 -2.9
2020-Jan-23 09:20
2020-Jan-23 09:15 312 0 -2.7
2020-Jan-23 09:10 312 0 -2.7
2020-Jan-23 09:05 312 0 -2.6
2020-Jan-23 09:00 312 0 -2.5
2020-Jan-23 08:55 312 0 -2.5
2020-Jan-23 08:50 312 0 -2.6
2020-Jan-23 08:45 312 0 -2.6
2020-Jan-23 08:40 252 0 -2.4
2020-Jan-23 08:35 252 0 -2.5
2020-Jan-23 08:30 252 0 -2.3
2020-Jan-23 08:25 252 0 -2.3
2020-Jan-23 08:20 252 0 -2.4
2020-Jan-23 08:15 252 0 -2.6
2020-Jan-23 08:10
2020-Jan-23 08:05 260 0 -2.9
2020-Jan-23 08:00 260 0 -3.0
2020-Jan-23 07:55 260 0 -2.9
2020-Jan-23 07:50 260 0 -3.0
2020-Jan-23 07:45 260 0 -3.0
2020-Jan-23 07:40 -3.0
2020-Jan-23 07:35 -3.2
2020-Jan-23 07:30 -2.9
2020-Jan-23 07:25 -3.1
2020-Jan-23 07:20
2020-Jan-23 07:15 -3.9
2020-Jan-23 07:10 -4.3
2020-Jan-23 07:05 324 -4.8
2020-Jan-23 07:00 324 -4.9
2020-Jan-23 06:55 324 -5.0
2020-Jan-23 06:50 324 -5.0
2020-Jan-23 06:45 324 -4.7
2020-Jan-23 06:40 042 -4.4
2020-Jan-23 06:35 042 -4.2
2020-Jan-23 06:30 042 -4.0
2020-Jan-23 06:25 042 -3.6
2020-Jan-23 06:20 042 -3.2
2020-Jan-23 06:15 292 0 -3.0
2020-Jan-23 06:10 292 0 -3.0
2020-Jan-23 06:05 292 0 -3.5
2020-Jan-23 06:00 292 0 -3.3
2020-Jan-23 05:55 292 0 -3.1
2020-Jan-23 05:50 292 0 -2.9
2020-Jan-23 05:45 292 0 -3.0
2020-Jan-23 05:40 344 0 -2.8
2020-Jan-23 05:35 344 0 -2.7
2020-Jan-23 05:30 344 0 -2.6
2020-Jan-23 05:25 344 0 -2.4
2020-Jan-23 05:20 344 0 -2.5
2020-Jan-23 05:15
2020-Jan-23 05:10 282 -2.6
2020-Jan-23 05:05 282 -2.6
2020-Jan-23 05:00 282 -2.7
2020-Jan-23 04:55 282 -2.7
2020-Jan-23 04:50 282 -2.7
2020-Jan-23 04:45 282 -2.8
2020-Jan-23 04:40 272 -2.9
2020-Jan-23 04:35 272 -3.0
2020-Jan-23 04:30 272 -3.0
2020-Jan-23 04:25 272 -2.8
2020-Jan-23 04:20
2020-Jan-23 04:15 272 -2.3
2020-Jan-23 04:10 272 -2.3
2020-Jan-23 04:05 242 1 -2.3
2020-Jan-23 04:00 242 1 -2.4
2020-Jan-23 03:55 242 1 -2.3
2020-Jan-23 03:50 242 1 -2.3
2020-Jan-23 03:45 242 1 -2.3
2020-Jan-23 03:40 258 0 -2.2
2020-Jan-23 03:35 258 0 -2.3
2020-Jan-23 03:30 258 0 -2.2
2020-Jan-23 03:25 258 0 -2.1
2020-Jan-23 03:20 258 0 -2.1
2020-Jan-23 03:15
2020-Jan-23 03:10 258 0 -2.0
2020-Jan-23 03:05 234 1 -1.9
2020-Jan-23 03:00 234 1 -1.9
2020-Jan-23 02:55 234 1 -2.0
2020-Jan-23 02:50 234 1 -2.0
2020-Jan-23 02:45 234 1 -2.0
2020-Jan-23 02:40
2020-Jan-23 02:35 210 -2.1
2020-Jan-23 02:30 210 -2.1
2020-Jan-23 02:25
2020-Jan-23 02:20 210 -2.2
2020-Jan-23 02:15 210 -2.2
2020-Jan-23 02:10 210 -2.2
2020-Jan-23 02:05 210 -2.1
2020-Jan-23 02:00 240 1 -2.2
2020-Jan-23 01:55 240 1 -2.1
2020-Jan-23 01:50 240 1 -2.1
2020-Jan-23 01:40 234 0 -1.9
2020-Jan-23 01:35 234 0 -1.8
2020-Jan-23 01:30 234 0 -1.9
2020-Jan-23 01:25 234 0 -1.8
2020-Jan-23 01:20
2020-Jan-23 01:15 234 0 -1.7
2020-Jan-23 01:10 234 0 -1.8
2020-Jan-23 01:05 230 -1.8
2020-Jan-23 01:00 230 -1.8
2020-Jan-23 00:50 230 -1.9
2020-Jan-23 00:45 230 -1.9
2020-Jan-23 00:35 232 -1.7
2020-Jan-23 00:30 232 -1.8
2020-Jan-23 00:25 232 -1.9
2020-Jan-23 00:20
2020-Jan-23 00:15 232 -1.9
2020-Jan-23 00:10 220 1 -1.9
2020-Jan-23 00:05 220 1 -1.8
2020-Jan-23 00:00 220 1 -1.9
2020-Jan-22 23:55
2020-Jan-22 23:50 220 1 -1.9
2020-Jan-22 23:45 220 1 -1.8
2020-Jan-22 23:40
2020-Jan-22 23:35 240 1 -1.6
2020-Jan-22 23:30 240 1 -1.6
2020-Jan-22 23:25 240 1 -1.6
2020-Jan-22 23:20
2020-Jan-22 23:15 240 1 -1.5
2020-Jan-22 23:10 240 1 -1.4
2020-Jan-22 23:05 240 1 -1.5
2020-Jan-22 23:00 240 1 -1.5
2020-Jan-22 22:55 240 1 -1.4
2020-Jan-22 22:50 240 1 -1.4
2020-Jan-22 22:45 240 1 -1.3
2020-Jan-22 22:40 230 1 -1.3
2020-Jan-22 22:35 230 1 -1.1
2020-Jan-22 22:30 230 1 -1.0
2020-Jan-22 22:20 230 1 -0.6
2020-Jan-22 22:15 230 1 -0.4
2020-Jan-22 22:10 230 1 -0.0
2020-Jan-22 22:05 242 4 0.2
2020-Jan-22 22:00 242 4 0.2
2020-Jan-22 21:55 242 4 0.4
2020-Jan-22 21:50 242 4 0.5
2020-Jan-22 21:45 242 4 0.6
2020-Jan-22 21:40 246 4 0.7
2020-Jan-22 21:35 246 4 0.8
2020-Jan-22 21:30 246 4 0.9
2020-Jan-22 21:25 246 4 1.0
2020-Jan-22 21:20 246 4 1.0
2020-Jan-22 21:10 238 3 1.1
2020-Jan-22 21:05 238 3 1.2
2020-Jan-22 21:00 238 3 1.3
2020-Jan-22 20:55 238 3 1.2
2020-Jan-22 20:50 238 3 1.5
2020-Jan-22 20:45 238 3 1.7
2020-Jan-22 20:40 248 4 1.8
2020-Jan-22 20:35 248 4 1.8
2020-Jan-22 20:30 248 4 1.9
2020-Jan-22 20:25 248 4 2.3
2020-Jan-22 20:20 248 4 2.2
2020-Jan-22 20:15 248 4 2.6
2020-Jan-22 20:10
2020-Jan-22 20:05 248 4 2.5
2020-Jan-22 20:00 254 6 2.7
2020-Jan-22 19:55 254 6 2.5
2020-Jan-22 19:50 254 6 2.7
2020-Jan-22 19:45
2020-Jan-22 19:40 258 6 2.7
2020-Jan-22 19:35 258 6 2.9
2020-Jan-22 19:30 258 6 3.2
2020-Jan-22 19:25 258 6 3.0
2020-Jan-22 19:20
2020-Jan-22 19:15 258 6 3.5
2020-Jan-22 19:10 260 4 3.7
2020-Jan-22 19:05 260 4 3.6
2020-Jan-22 19:00 260 4 3.8
2020-Jan-22 18:55 260 4 3.9
2020-Jan-22 18:50 260 4 3.5
2020-Jan-22 18:45 260 4 3.7
2020-Jan-22 18:40 254 3 3.7
2020-Jan-22 18:35 254 3 3.3
2020-Jan-22 18:30
2020-Jan-22 18:25 254 3 3.1
2020-Jan-22 18:20 254 3 3.0
2020-Jan-22 18:15
2020-Jan-22 18:10 254 3 3.1
2020-Jan-22 18:05 254 3 3.2
2020-Jan-22 18:00 250 5 3.5
2020-Jan-22 17:55 250 5 3.3
2020-Jan-22 17:50 250 5 3.0
2020-Jan-22 17:45 250 5 3.3
2020-Jan-22 17:40 262 5 2.9
2020-Jan-22 17:35 262 5 2.5
2020-Jan-22 17:30 262 5 2.3
2020-Jan-22 17:25
2020-Jan-22 17:20 262 5 3.2
2020-Jan-22 17:15 266 4 3.3
2020-Jan-22 17:05 266 4 3.0
2020-Jan-22 17:00 266 4 2.9
2020-Jan-22 16:55 266 4 3.2
2020-Jan-22 16:50 266 4 2.9
2020-Jan-22 16:45 266 4 2.6
2020-Jan-22 16:40 282 4 2.5
2020-Jan-22 16:35 282 4 2.7
2020-Jan-22 16:30
2020-Jan-22 16:25 282 4 2.8
2020-Jan-22 16:20
2020-Jan-22 16:15
2020-Jan-22 16:10 282 4 2.1
2020-Jan-22 16:05 274 2 1.8
2020-Jan-22 16:00 274 2 1.5
2020-Jan-22 15:55
2020-Jan-22 15:50 274 2 1.5
2020-Jan-22 15:45 274 2 1.5
2020-Jan-22 15:40 290 2 0.8
2020-Jan-22 15:35 290 2 0.6
2020-Jan-22 15:30 290 2 1.1
2020-Jan-22 15:25 290 2 1.1
2020-Jan-22 15:20 290 2 0.8
2020-Jan-22 15:15 290 2 0.8
2020-Jan-22 15:05 280 1 -0.3
2020-Jan-22 15:00 280 1 -0.8
2020-Jan-22 14:55 280 1 -1.2
2020-Jan-22 14:50 280 1 -1.4
2020-Jan-22 14:45
2020-Jan-22 14:40
2020-Jan-22 14:35 294 0 -1.7
2020-Jan-22 14:30 294 0 -2.0
2020-Jan-22 14:25 294 0 -1.9
2020-Jan-22 14:20
2020-Jan-22 14:10 294 0 -2.4
2020-Jan-22 14:05 258 0 -2.7
2020-Jan-22 14:00 258 0 -2.8
2020-Jan-22 13:55 258 0 -3.2
2020-Jan-22 13:50 258 0 -3.3
2020-Jan-22 13:45 258 0 -3.5
2020-Jan-22 13:40 250 0 -3.8
2020-Jan-22 13:35 250 0 -4.1
2020-Jan-22 13:30 250 0 -4.3
2020-Jan-22 13:25 250 0 -4.5
2020-Jan-22 13:20 250 0 -4.9
2020-Jan-22 13:15 250 0 -5.4
2020-Jan-22 13:10 230 0 -6.0
2020-Jan-22 13:05 230 0 -6.2
2020-Jan-22 13:00 230 0 -6.3
2020-Jan-22 12:55 230 0 -6.6
2020-Jan-22 12:50 230 0 -7.0
2020-Jan-22 12:40 268 -7.6
2020-Jan-22 12:35 268 -7.9
2020-Jan-22 12:30 268 -8.0
2020-Jan-22 12:25 268 -8.1
2020-Jan-22 12:20
2020-Jan-22 12:15 268 -8.4
2020-Jan-22 12:10 268 -8.6
2020-Jan-22 12:05 332 0 -8.7
2020-Jan-22 12:00 332 0 -8.9
2020-Jan-22 11:55 332 0 -9.0
2020-Jan-22 11:50 332 0 -9.1
2020-Jan-22 11:45 332 0 -9.0
2020-Jan-22 11:40 332 0 -9.0
2020-Jan-22 11:35
2020-Jan-22 11:30 332 0 -9.0